{"data":{"norad_id":48076,"epoch":"2026-09-20T01:39:47.654784Z","epoch_age_seconds":55401,"freshness":"FRESH","line1":"1 48076U 21025AL  26263.06930156 -.00000150  00000+0 -44643-3 0  9995","line2":"2 48076  87.8924 301.3411 0002103  98.2873 261.8495 13.13471212266106","mean_motion":13.13471212,"eccentricity":0.0002103,"inclination_deg":87.8924,"raan_deg":301.3411,"arg_perigee_deg":98.2873,"mean_anomaly_deg":261.8495,"bstar":-0.00044643,"rev_number":26610,"period_min":109.63316034977,"perigee_km":1208.1649972033,"apogee_km":1211.3564669894,"semimajor_km":7587.8977320963,"source":"CELESTRAK","updated_at":"2026-09-20T09:00:44.591461Z"}}